STARLINK-11232 [DTC] (60401 NORAD) Tracking and Keplerian Element Data

This shows tracking and keplerian element data for the satellite.

Feedback or suggestion? Click here.




ElementValue
Catalog60401
NameSTARLINK-11232 [DTC]
Epoch Orbit1118
Epoch Day286.7510563
Epoch Year2024
RAAN94.6061
Inclination53.1587
Eccentricity7.37E-05
Argument of Perigee75.8817
Mean Anonmoly284.2282
Mean Motion15.69756237
Decay Rate6.77E-06
L11 60401U 24141D 24286.75105630 .00000677 00000+0 10425-4 0 9997
L22 60401 53.1587 94.6061 0000737 75.8817 284.2282 15.69756237 11181



Live tracking and technical data element details for STARLINK-11232 [DTC] (NORAD 60401). STARLINK-11232 [DTC] can be tracked NOW for your location showing map with azimuth and elevation plus other details from your city location.







IsCatalogInMostPopularTable: catalog: 60401, numindb: 7
Update: records affected: 1



GetName: 60401 STARLINK-11232 [DTC]

Hit Count: updated at: Wed, 04 Dec 2024 19:31:00 GMT